* Astronomy

Members Login
Username 
 
Password 
    Remember Me  
Post Info TOPIC: Asteroid 2012 UA69


L

Posts: 131433
Date:
Asteroid 2002 TX55 = 2012 UA69
Permalink  
 


Orbital elements:
2002 TX55 = 2012 UA69                                    Earth MOID = 0.0035 AU
Id. A. Lowe
Epoch 2012 Sept. 30.0 TT = JDT 2456200.5                MPC
M   5.42897              (2000.0)            P               Q
n   0.29526092     Peri.  148.90259     +0.93403239     +0.35693108
a   2.2335657      Node   190.21281     -0.34141104     +0.88097922
e   0.5711642      Incl.    4.38420     -0.10498575     +0.31060558
P   3.34           H   23.7           G   0.15           U   1

MPEC 2012 - U92



__________________


L

Posts: 131433
Date:
Asteroid 2012 UA69
Permalink  
 


Orbital elements:
2012 UA69                                                Earth MOID = 0.0045 AU
Epoch 2012 Sept. 30.0 TT = JDT 2456200.5                MPC
M   4.54232              (2000.0)            P               Q
n   0.26415929     Peri.  151.32880     +0.94294131     +0.33273194
a   2.4056113      Node   189.26159     -0.31820610     +0.88967727
e   0.5982033      Incl.    4.38101     -0.09801309     +0.31267204
P   3.73           H   23.8           G   0.15           U   9

MPEC 2012 - U78



__________________
Page 1 of 1  sorted by
 
Quick Reply

Please log in to post quick replies.



Create your own FREE Forum
Report Abuse
Powered by ActiveBoard